Time,TemperatureF,DewpointF,PressureIn,WindDirection,WindDirectionDegrees,WindSpeedMPH,WindSpeedGustMPH,Humidity,HourlyPrecipIn,Conditions,Clouds,dailyrainin,SoftwareType,DateUTC
2013-03-08 00:02:00,28.3,27.7,30.02,WSW,245,0.0,0.0,98,0.00,,,0.00,VWS V14.00,2013-03-08 05:02:00,
2013-03-08 00:05:00,28.1,27.5,30.02,WSW,245,0.0,0.0,98,0.00,,,0.00,VWS V14.00,2013-03-08 05:05:00,
2013-03-08 00:08:00,28.3,27.7,30.02,WSW,245,0.0,0.0,98,0.00,,,0.00,VWS V14.00,2013-03-08 05:08:00,
2013-03-08 00:14:00,28.1,27.5,30.02,WSW,245,0.0,0.0,98,0.00,,,0.00,VWS V14.00,2013-03-08 05:14:00,
2013-03-08 00:20:00,28.3,27.7,30.02,WSW,245,0.0,0.0,98,0.00,,,0.00,VWS V14.00,2013-03-08 05:20:00,
2013-03-08 00:26:00,28.2,27.6,30.02,WSW,245,0.0,0.0,98,0.00,,,0.00,VWS V14.00,2013-03-08 05:26:00,
2013-03-08 00:32:00,28.2,27.6,30.02,WSW,245,0.0,0.0,98,0.00,,,0.00,VWS V14.00,2013-03-08 05:32:00,
2013-03-08 00:38:00,28.2,27.6,30.02,WSW,245,0.0,0.0,98,0.00,,,0.00,VWS V14.00,2013-03-08 05:38:00,
2013-03-08 00:44:00,28.3,27.7,30.02,WSW,245,0.0,0.0,98,0.00,,,0.00,VWS V14.00,2013-03-08 05:44:00,
2013-03-08 00:50:00,28.3,27.8,30.02,WSW,245,0.0,0.0,98,0.00,,,0.00,VWS V14.00,2013-03-08 05:50:00,
2013-03-08 00:56:00,28.2,27.7,30.02,WSW,245,0.0,0.0,98,0.00,,,0.00,VWS V14.00,2013-03-08 05:56:00,
2013-03-08 01:02:00,28.4,27.9,30.03,WSW,245,0.0,0.0,98,0.00,,,0.00,VWS V14.00,2013-03-08 06:02:00,
2013-03-08 01:08:00,28.2,27.7,30.02,WSW,245,0.0,0.0,98,0.00,,,0.00,VWS V14.00,2013-03-08 06:08:00,
2013-03-08 01:14:00,28.1,27.6,30.03,WSW,245,0.0,0.0,98,0.00,,,0.00,VWS V14.00,2013-03-08 06:14:00,
2013-03-08 01:21:00,28.1,27.6,30.03,WSW,245,0.0,0.0,98,0.00,,,0.00,VWS V14.00,2013-03-08 06:21:00,
2013-03-08 01:27:00,28.1,27.6,30.03,WSW,245,0.0,0.0,98,0.00,,,0.00,VWS V14.00,2013-03-08 06:27:00,
2013-03-08 01:33:00,28.0,27.6,30.03,WSW,245,0.0,0.0,98,0.00,,,0.00,VWS V14.00,2013-03-08 06:33:00,
2013-03-08 01:39:00,28.1,27.7,30.03,WSW,245,0.0,0.0,98,0.00,,,0.00,VWS V14.00,2013-03-08 06:39:00,
2013-03-08 01:45:00,28.1,27.7,30.02,WSW,245,0.0,0.0,98,0.00,,,0.00,VWS V14.00,2013-03-08 06:45:00,
2013-03-08 01:51:00,27.9,27.5,30.02,WSW,245,0.0,0.0,98,0.00,,,0.00,VWS V14.00,2013-03-08 06:51:00,
2013-03-08 01:57:00,27.8,27.4,30.02,WSW,245,0.0,0.0,98,0.00,,,0.00,VWS V14.00,2013-03-08 06:57:00,
2013-03-08 02:03:00,27.7,27.4,30.02,WSW,245,0.0,0.0,99,0.00,,,0.00,VWS V14.00,2013-03-08 07:03:00,
2013-03-08 02:09:00,27.6,27.3,30.02,WSW,245,0.0,0.0,99,0.00,,,0.00,VWS V14.00,2013-03-08 07:09:00,
2013-03-08 02:15:00,27.5,27.2,30.02,WSW,245,0.0,0.0,99,0.00,,,0.00,VWS V14.00,2013-03-08 07:15:00,
2013-03-08 02:21:00,27.4,27.2,30.02,WSW,245,0.0,0.0,99,0.00,,,0.00,VWS V14.00,2013-03-08 07:21:00,
2013-03-08 02:27:00,27.4,27.2,30.02,WSW,245,0.0,0.0,99,0.00,,,0.00,VWS V14.00,2013-03-08 07:27:00,
2013-03-08 02:33:00,27.4,27.2,30.02,WSW,245,0.0,0.0,99,0.00,,,0.00,VWS V14.00,2013-03-08 07:33:00,
2013-03-08 02:39:00,27.3,27.1,30.02,WSW,245,0.0,0.0,99,0.00,,,0.00,VWS V14.00,2013-03-08 07:39:00,
2013-03-08 02:45:00,27.3,27.1,30.02,WSW,245,0.0,0.0,99,0.00,,,0.00,VWS V14.00,2013-03-08 07:45:00,
2013-03-08 02:51:00,27.1,27.0,30.01,WSW,245,0.0,0.0,100,0.00,,,0.00,VWS V14.00,2013-03-08 07:51:00,
2013-03-08 02:57:00,27.1,27.0,30.01,WSW,245,0.0,0.0,100,0.00,,,0.00,VWS V14.00,2013-03-08 07:57:00,
2013-03-08 03:03:00,27.1,27.0,30.01,WSW,245,0.0,0.0,100,0.00,,,0.00,VWS V14.00,2013-03-08 08:03:00,
2013-03-08 03:09:00,27.3,27.3,30.01,WSW,245,0.0,0.0,100,0.00,,,0.00,VWS V14.00,2013-03-08 08:09:00,
2013-03-08 03:15:00,27.2,27.2,30.01,WSW,245,0.0,0.0,100,0.00,,,0.00,VWS V14.00,2013-03-08 08:15:00,
2013-03-08 03:21:00,27.3,27.3,30.01,WSW,245,0.0,0.0,100,0.00,,,0.00,VWS V14.00,2013-03-08 08:21:00,
2013-03-08 03:27:00,27.2,27.1,30.00,WSW,245,0.0,0.0,100,0.00,,,0.00,VWS V14.00,2013-03-08 08:27:00,
2013-03-08 03:33:00,27.1,27.0,30.01,WNW,284,0.0,5.5,100,0.00,,,0.00,VWS V14.00,2013-03-08 08:33:00,
2013-03-08 03:39:00,26.8,26.8,30.01,WNW,284,0.0,5.5,100,0.00,,,0.00,VWS V14.00,2013-03-08 08:39:00,
2013-03-08 03:45:00,26.9,26.9,30.01,WNW,284,0.0,5.5,100,0.00,,,0.00,VWS V14.00,2013-03-08 08:45:00,
2013-03-08 03:51:00,27.0,27.0,30.01,WNW,284,0.0,5.5,100,0.00,,,0.00,VWS V14.00,2013-03-08 08:51:00,
2013-03-08 03:57:00,27.0,27.0,30.01,WNW,297,0.0,5.5,100,0.00,,,0.00,VWS V14.00,2013-03-08 08:57:00,
2013-03-08 04:03:00,26.9,26.9,30.01,WNW,297,0.0,5.5,100,0.00,,,0.00,VWS V14.00,2013-03-08 09:03:00,
2013-03-08 04:09:00,27.0,27.0,30.01,WNW,297,0.0,5.5,100,0.00,,,0.00,VWS V14.00,2013-03-08 09:09:00,
2013-03-08 04:16:00,27.0,27.0,30.01,North,354,0.0,5.5,100,0.00,,,0.00,VWS V14.00,2013-03-08 09:16:00,
2013-03-08 04:22:00,26.8,26.8,30.01,NNW,338,0.0,5.5,100,0.00,,,0.00,VWS V14.00,2013-03-08 09:22:00,
2013-03-08 04:28:00,26.9,26.9,30.02,NNW,347,0.0,5.5,100,0.00,,,0.00,VWS V14.00,2013-03-08 09:28:00,
2013-03-08 04:34:00,26.8,26.8,30.02,NNW,347,0.0,5.5,100,0.00,,,0.00,VWS V14.00,2013-03-08 09:34:00,
2013-03-08 04:40:00,26.7,26.7,30.02,WNW,294,0.0,5.7,100,0.00,,,0.00,VWS V14.00,2013-03-08 09:40:00,
2013-03-08 04:46:00,26.8,26.8,30.02,WNW,294,0.0,5.7,100,0.00,,,0.00,VWS V14.00,2013-03-08 09:46:00,
2013-03-08 04:52:00,26.8,26.8,30.02,WNW,294,0.0,5.7,100,0.00,,,0.00,VWS V14.00,2013-03-08 09:52:00,
2013-03-08 04:58:00,26.7,26.7,30.02,WNW,294,0.0,5.7,100,0.00,,,0.00,VWS V14.00,2013-03-08 09:58:00,
2013-03-08 05:04:00,26.7,26.7,30.02,WNW,294,0.0,5.7,100,0.00,,,0.00,VWS V14.00,2013-03-08 10:04:00,
2013-03-08 05:10:00,26.6,26.6,30.02,WNW,294,0.0,5.7,100,0.00,,,0.00,VWS V14.00,2013-03-08 10:10:00,
2013-03-08 05:16:00,26.5,26.5,30.03,WNW,294,0.0,5.7,100,0.00,,,0.00,VWS V14.00,2013-03-08 10:16:00,
2013-03-08 05:22:00,26.5,26.5,30.02,WNW,294,0.0,5.7,100,0.00,,,0.00,VWS V14.00,2013-03-08 10:22:00,
2013-03-08 05:28:00,26.5,26.5,30.03,WNW,294,0.0,5.7,100,0.00,,,0.00,VWS V14.00,2013-03-08 10:28:00,
2013-03-08 05:34:00,26.5,26.5,30.03,WNW,294,0.0,5.7,100,0.00,,,0.00,VWS V14.00,2013-03-08 10:34:00,
2013-03-08 05:40:00,26.6,26.6,30.02,WNW,294,0.0,5.7,100,0.00,,,0.00,VWS V14.00,2013-03-08 10:40:00,
2013-03-08 05:46:00,26.6,26.6,30.02,WNW,294,0.0,5.7,100,0.00,,,0.00,VWS V14.00,2013-03-08 10:46:00,
2013-03-08 05:52:00,26.6,26.6,30.02,WNW,294,0.0,5.7,100,0.00,,,0.00,VWS V14.00,2013-03-08 10:52:00,
2013-03-08 05:58:00,26.7,26.7,30.02,WNW,294,0.0,5.7,100,0.00,,,0.00,VWS V14.00,2013-03-08 10:58:00,
2013-03-08 06:04:00,26.6,26.6,30.02,WNW,294,0.0,5.7,100,0.00,,,0.00,VWS V14.00,2013-03-08 11:04:00,
2013-03-08 06:10:00,26.5,26.5,30.02,WNW,294,0.0,5.7,100,0.00,,,0.00,VWS V14.00,2013-03-08 11:10:00,
2013-03-08 06:16:00,26.4,26.4,30.02,WNW,294,0.0,5.7,100,0.00,,,0.00,VWS V14.00,2013-03-08 11:16:00,
2013-03-08 06:22:00,26.4,26.4,30.02,WNW,294,0.0,5.7,100,0.00,,,0.00,VWS V14.00,2013-03-08 11:22:00,
2013-03-08 06:28:00,26.4,26.4,30.02,WNW,294,0.0,5.7,100,0.00,,,0.00,VWS V14.00,2013-03-08 11:28:00,
2013-03-08 06:34:00,26.6,26.6,30.02,WNW,294,0.0,5.7,100,0.00,,,0.00,VWS V14.00,2013-03-08 11:34:00,
2013-03-08 06:40:00,26.5,26.5,30.02,WNW,294,0.0,5.7,100,0.00,,,0.00,VWS V14.00,2013-03-08 11:40:00,
2013-03-08 06:46:00,26.4,26.4,30.03,WNW,294,0.0,5.7,100,0.00,,,0.00,VWS V14.00,2013-03-08 11:46:00,
2013-03-08 06:52:00,26.6,26.6,30.03,WNW,294,0.0,5.7,100,0.00,,,0.00,VWS V14.00,2013-03-08 11:52:00,
2013-03-08 06:58:00,26.5,26.5,30.03,WNW,294,0.0,5.7,100,0.00,,,0.00,VWS V14.00,2013-03-08 11:58:00,
2013-03-08 07:05:00,26.7,26.7,30.03,WNW,294,0.0,5.7,100,0.00,,,0.00,VWS V14.00,2013-03-08 12:05:00,
2013-03-08 07:11:00,26.7,26.7,30.04,WNW,294,0.0,5.7,100,0.00,,,0.00,VWS V14.00,2013-03-08 12:11:00,
2013-03-08 07:17:00,26.8,26.8,30.04,WNW,294,0.0,5.7,100,0.00,,,0.00,VWS V14.00,2013-03-08 12:17:00,
2013-03-08 07:23:00,26.8,26.8,30.04,WNW,294,0.0,5.7,100,0.00,,,0.00,VWS V14.00,2013-03-08 12:23:00,
2013-03-08 07:29:00,27.0,27.0,30.04,WNW,294,0.0,5.7,100,0.00,,,0.00,VWS V14.00,2013-03-08 12:29:00,
2013-03-08 07:35:00,27.0,27.0,30.04,WNW,294,0.0,5.7,100,0.00,,,0.00,VWS V14.00,2013-03-08 12:35:00,
2013-03-08 07:41:00,27.1,27.1,30.05,WNW,294,0.0,5.7,100,0.00,,,0.00,VWS V14.00,2013-03-08 12:41:00,
2013-03-08 07:47:00,27.2,27.2,30.05,WNW,294,0.0,5.7,100,0.00,,,0.00,VWS V14.00,2013-03-08 12:47:00,
2013-03-08 07:53:00,27.3,27.3,30.05,WNW,294,0.0,5.7,100,0.00,,,0.00,VWS V14.00,2013-03-08 12:53:00,
2013-03-08 07:59:00,27.5,27.5,30.05,WNW,294,0.0,5.7,100,0.00,,,0.00,VWS V14.00,2013-03-08 12:59:00,
2013-03-08 08:05:00,27.4,27.4,30.05,WNW,294,0.0,5.7,100,0.00,,,0.00,VWS V14.00,2013-03-08 13:05:00,
2013-03-08 08:11:00,27.6,27.6,30.05,WNW,294,0.0,5.7,100,0.00,,,0.00,VWS V14.00,2013-03-08 13:11:00,
2013-03-08 08:17:00,27.6,27.6,30.05,WNW,294,0.0,5.7,100,0.00,,,0.00,VWS V14.00,2013-03-08 13:17:00,
2013-03-08 08:23:00,27.4,27.4,30.05,WNW,294,0.0,5.7,100,0.00,,,0.00,VWS V14.00,2013-03-08 13:23:00,
2013-03-08 08:29:00,27.4,27.4,30.06,WNW,294,0.0,5.7,100,0.00,,,0.00,VWS V14.00,2013-03-08 13:29:00,
2013-03-08 08:35:00,27.2,27.2,30.06,WNW,294,0.0,5.7,100,0.00,,,0.00,VWS V14.00,2013-03-08 13:35:00,
2013-03-08 08:41:00,27.3,27.3,30.06,WNW,294,0.0,5.7,100,0.00,,,0.00,VWS V14.00,2013-03-08 13:41:00,
2013-03-08 08:47:00,27.4,27.4,30.06,WNW,294,0.0,5.7,100,0.00,,,0.00,VWS V14.00,2013-03-08 13:47:00,
2013-03-08 08:53:00,27.3,27.3,30.06,WNW,294,0.0,5.7,100,0.00,,,0.00,VWS V14.00,2013-03-08 13:53:00,
2013-03-08 08:59:00,27.4,27.4,30.06,WNW,294,0.0,5.7,100,0.00,,,0.00,VWS V14.00,2013-03-08 13:59:00,
2013-03-08 09:05:00,27.4,27.4,30.07,WNW,294,0.0,5.7,100,0.00,,,0.00,VWS V14.00,2013-03-08 14:05:00,
2013-03-08 09:11:00,27.4,27.4,30.07,WNW,294,0.0,5.7,100,0.00,,,0.00,VWS V14.00,2013-03-08 14:11:00,
2013-03-08 09:17:00,27.7,27.7,30.07,WSW,246,0.0,5.7,100,0.00,,,0.00,VWS V14.00,2013-03-08 14:17:00,
2013-03-08 09:23:00,28.0,28.0,30.07,WSW,246,0.0,5.7,100,0.00,,,0.00,VWS V14.00,2013-03-08 14:23:00,
2013-03-08 09:29:00,27.9,27.9,30.06,WSW,249,0.0,5.7,100,0.00,,,0.00,VWS V14.00,2013-03-08 14:29:00,
2013-03-08 09:35:00,27.9,27.9,30.06,WSW,249,0.0,5.7,100,0.00,,,0.00,VWS V14.00,2013-03-08 14:35:00,
2013-03-08 09:41:00,27.7,27.7,30.06,NNW,336,2.5,6.2,100,0.00,,,0.00,VWS V14.00,2013-03-08 14:41:00,
2013-03-08 09:47:00,27.7,27.7,30.06,NNW,338,3.4,6.6,100,0.00,,,0.00,VWS V14.00,2013-03-08 14:47:00,
2013-03-08 09:53:00,27.8,27.8,30.06,NNW,336,0.0,6.6,100,0.00,,,0.00,VWS V14.00,2013-03-08 14:53:00,
2013-03-08 09:59:00,27.8,27.8,30.06,North,7,0.0,6.6,100,0.00,,,0.00,VWS V14.00,2013-03-08 14:59:00,
2013-03-08 10:06:00,28.0,28.0,30.06,North,349,6.3,6.6,100,0.00,,,0.00,VWS V14.00,2013-03-08 15:06:00,
2013-03-08 10:12:00,28.2,28.2,30.07,NNW,340,0.0,6.9,100,0.00,,,0.00,VWS V14.00,2013-03-08 15:12:00,
2013-03-08 10:18:00,28.3,28.3,30.07,NNW,340,0.0,6.9,100,0.00,,,0.00,VWS V14.00,2013-03-08 15:18:00,
2013-03-08 10:24:00,28.7,28.7,30.07,NNW,340,0.0,6.9,100,0.00,,,0.00,VWS V14.00,2013-03-08 15:24:00,
2013-03-08 10:30:00,28.8,28.8,30.05,NNW,340,0.0,6.9,100,0.00,,,0.00,VWS V14.00,2013-03-08 15:30:00,
2013-03-08 10:36:00,29.0,29.0,30.08,North,7,0.0,7.4,100,0.00,,,0.00,VWS V14.00,2013-03-08 15:36:00,
2013-03-08 10:42:00,29.0,28.9,30.08,NW,308,0.0,7.4,99,0.00,,,0.00,VWS V14.00,2013-03-08 15:42:00,
2013-03-08 10:48:00,29.2,29.0,30.08,NW,308,0.0,7.4,99,0.00,,,0.00,VWS V14.00,2013-03-08 15:48:00,
2013-03-08 10:54:00,29.5,29.3,30.07,NNW,330,4.7,7.8,99,0.00,,,0.00,VWS V14.00,2013-03-08 15:54:00,
2013-03-08 11:00:00,29.9,29.6,30.07,NNW,330,0.0,7.8,99,0.00,,,0.00,VWS V14.00,2013-03-08 16:00:00,
2013-03-08 11:06:00,30.7,30.3,30.08,NNW,338,0.0,7.8,98,0.00,,,0.00,VWS V14.00,2013-03-08 16:06:00,
2013-03-08 11:12:00,31.2,30.5,30.08,NW,308,0.0,7.8,97,0.00,,,0.00,VWS V14.00,2013-03-08 16:12:00,
2013-03-08 11:18:00,31.7,30.6,30.07,NW,304,0.0,8.6,96,0.00,,,0.00,VWS V14.00,2013-03-08 16:18:00,
2013-03-08 11:24:00,32.2,30.8,30.08,NW,304,0.0,8.6,95,0.00,,,0.00,VWS V14.00,2013-03-08 16:24:00,
2013-03-08 11:30:00,32.6,30.9,30.08,NW,304,0.0,8.6,93,0.00,,,0.00,VWS V14.00,2013-03-08 16:30:00,
2013-03-08 11:36:00,32.9,30.9,30.07,NW,323,0.0,8.6,92,0.00,,,0.00,VWS V14.00,2013-03-08 16:36:00,
2013-03-08 11:42:00,33.3,31.1,30.08,NW,323,0.0,8.6,92,0.00,,,0.00,VWS V14.00,2013-03-08 16:42:00,
2013-03-08 11:48:00,33.9,31.5,30.08,West,266,0.0,8.6,91,0.00,,,0.00,VWS V14.00,2013-03-08 16:48:00,
2013-03-08 11:54:00,34.2,31.3,30.09,West,266,0.0,8.6,89,0.00,,,0.00,VWS V14.00,2013-03-08 16:54:00,
2013-03-08 12:00:00,34.6,31.3,30.08,West,266,0.0,8.6,88,0.00,,,0.00,VWS V14.00,2013-03-08 17:00:00,
2013-03-08 12:06:00,35.0,31.5,30.09,WNW,288,0.0,8.6,87,0.00,,,0.00,VWS V14.00,2013-03-08 17:06:00,
2013-03-08 12:12:00,35.6,31.8,30.08,NW,318,0.0,8.6,86,0.00,,,0.00,VWS V14.00,2013-03-08 17:12:00,
2013-03-08 12:18:00,36.0,31.7,30.09,NW,309,0.0,8.6,84,0.00,,,0.00,VWS V14.00,2013-03-08 17:18:00,
2013-03-08 12:24:00,36.4,31.6,30.08,NW,309,0.0,8.6,82,0.00,,,0.00,VWS V14.00,2013-03-08 17:24:00,
2013-03-08 12:30:00,37.0,31.9,30.08,NW,309,0.0,8.6,82,0.00,,,0.00,VWS V14.00,2013-03-08 17:30:00,
2013-03-08 12:37:00,37.2,31.6,30.08,NNW,343,0.0,8.6,80,0.00,,,0.00,VWS V14.00,2013-03-08 17:37:00,
2013-03-08 12:43:00,37.5,31.4,30.08,NW,325,0.0,8.6,78,0.00,,,0.00,VWS V14.00,2013-03-08 17:43:00,
2013-03-08 12:49:00,37.7,31.2,30.08,NNW,329,0.0,9.1,77,0.00,,,0.00,VWS V14.00,2013-03-08 17:49:00,
2013-03-08 12:55:00,38.0,31.4,30.08,NNW,336,2.4,9.1,77,0.00,,,0.00,VWS V14.00,2013-03-08 17:55:00,
2013-03-08 13:01:00,38.3,31.3,30.07,WNW,298,0.0,9.1,76,0.00,,,0.00,VWS V14.00,2013-03-08 18:01:00,
2013-03-08 13:07:00,38.7,31.5,30.08,NW,315,0.0,9.1,75,0.00,,,0.00,VWS V14.00,2013-03-08 18:07:00,
2013-03-08 13:13:00,38.9,31.1,30.08,WNW,302,5.2,9.1,73,0.00,,,0.00,VWS V14.00,2013-03-08 18:13:00,
2013-03-08 13:19:00,39.0,31.0,30.08,NW,315,0.0,9.1,73,0.00,,,0.00,VWS V14.00,2013-03-08 18:19:00,
2013-03-08 13:25:00,39.1,30.8,30.08,SSW,208,6.0,9.1,72,0.00,,,0.00,VWS V14.00,2013-03-08 18:25:00,
2013-03-08 13:31:00,39.6,31.3,30.08,NNW,333,4.7,9.1,72,0.00,,,0.00,VWS V14.00,2013-03-08 18:31:00,
2013-03-08 13:37:00,39.9,31.2,30.08,SW,232,3.5,11.6,71,0.00,,,0.00,VWS V14.00,2013-03-08 18:37:00,
2013-03-08 13:43:00,39.9,30.7,30.08,WSW,239,0.0,11.6,69,0.00,,,0.00,VWS V14.00,2013-03-08 18:43:00,
2013-03-08 13:49:00,39.8,30.7,30.09,WNW,290,0.0,11.6,70,0.00,,,0.00,VWS V14.00,2013-03-08 18:49:00,
2013-03-08 13:55:00,40.1,30.8,30.09,NW,307,7.2,11.6,69,0.00,,,0.00,VWS V14.00,2013-03-08 18:55:00,
2013-03-08 14:01:00,40.5,30.9,30.09,WNW,301,0.0,11.6,68,0.00,,,0.00,VWS V14.00,2013-03-08 19:01:00,
2013-03-08 14:07:00,40.8,30.9,30.09,West,262,0.0,11.6,68,0.00,,,0.00,VWS V14.00,2013-03-08 19:07:00,
2013-03-08 14:13:00,41.0,30.6,30.09,WSW,249,0.0,11.6,66,0.00,,,0.00,VWS V14.00,2013-03-08 19:13:00,
2013-03-08 14:19:00,41.0,30.5,30.09,NNW,340,4.7,11.6,66,0.00,,,0.00,VWS V14.00,2013-03-08 19:19:00,
2013-03-08 14:25:00,41.2,30.9,30.10,NW,323,0.0,11.6,66,0.00,,,0.00,VWS V14.00,2013-03-08 19:25:00,
2013-03-08 14:31:00,41.2,30.8,30.10,NW,318,0.0,11.6,66,0.00,,,0.00,VWS V14.00,2013-03-08 19:31:00,
2013-03-08 14:37:00,41.2,30.6,30.10,West,278,0.0,11.6,66,0.00,,,0.00,VWS V14.00,2013-03-08 19:37:00,
2013-03-08 14:43:00,40.9,30.4,30.10,WNW,285,0.0,11.6,66,0.00,,,0.00,VWS V14.00,2013-03-08 19:43:00,
2013-03-08 14:49:00,40.9,30.3,30.10,NW,323,0.0,11.6,66,0.00,,,0.00,VWS V14.00,2013-03-08 19:49:00,
2013-03-08 14:55:00,40.6,29.9,30.10,WNW,291,0.0,11.6,65,0.00,,,0.00,VWS V14.00,2013-03-08 19:55:00,
2013-03-08 15:01:00,40.4,29.7,30.10,WNW,287,0.0,11.6,65,0.00,,,0.00,VWS V14.00,2013-03-08 20:01:00,
2013-03-08 15:07:00,40.2,29.7,30.10,WNW,288,0.0,11.6,66,0.00,,,0.00,VWS V14.00,2013-03-08 20:07:00,
2013-03-08 15:14:00,39.9,29.3,30.10,NW,321,0.0,11.6,66,0.00,,,0.00,VWS V14.00,2013-03-08 20:14:00,
2013-03-08 15:20:00,39.8,29.3,30.10,NNW,328,0.0,11.6,66,0.00,,,0.00,VWS V14.00,2013-03-08 20:20:00,
2013-03-08 15:26:00,39.7,29.1,30.10,NW,311,0.0,11.6,66,0.00,,,0.00,VWS V14.00,2013-03-08 20:26:00,
2013-03-08 15:32:00,39.7,29.2,30.10,West,280,0.0,11.6,66,0.00,,,0.00,VWS V14.00,2013-03-08 20:32:00,
2013-03-08 15:38:00,39.8,29.5,30.10,NW,316,0.0,11.6,66,0.00,,,0.00,VWS V14.00,2013-03-08 20:38:00,
2013-03-08 15:44:00,40.0,29.4,30.11,WNW,302,5.3,11.6,66,0.00,,,0.00,VWS V14.00,2013-03-08 20:44:00,
2013-03-08 15:50:00,40.0,29.2,30.11,NNW,333,4.4,11.6,65,0.00,,,0.00,VWS V14.00,2013-03-08 20:50:00,
2013-03-08 15:56:00,40.0,29.1,30.11,WNW,288,6.0,11.6,65,0.00,,,0.00,VWS V14.00,2013-03-08 20:56:00,
2013-03-08 16:02:00,39.6,28.6,30.11,WNW,300,3.2,11.6,64,0.00,,,0.00,VWS V14.00,2013-03-08 21:02:00,
2013-03-08 16:08:00,39.4,28.3,30.12,WNW,287,4.3,11.6,64,0.00,,,0.00,VWS V14.00,2013-03-08 21:08:00,
2013-03-08 16:14:00,39.0,28.1,30.12,WNW,295,7.8,11.6,65,0.00,,,0.00,VWS V14.00,2013-03-08 21:14:00,
2013-03-08 16:20:00,39.0,28.1,30.12,WNW,297,4.6,11.6,65,0.00,,,0.00,VWS V14.00,2013-03-08 21:20:00,
2013-03-08 16:26:00,38.6,27.9,30.13,West,267,5.7,11.6,65,0.00,,,0.00,VWS V14.00,2013-03-08 21:26:00,
2013-03-08 16:32:00,38.5,28.0,30.13,NW,312,4.3,11.6,66,0.00,,,0.00,VWS V14.00,2013-03-08 21:32:00,
2013-03-08 16:38:00,38.2,27.8,30.13,WNW,283,2.0,11.6,66,0.00,,,0.00,VWS V14.00,2013-03-08 21:38:00,
2013-03-08 16:44:00,37.8,27.7,30.13,WNW,284,6.7,11.6,66,0.00,,,0.00,VWS V14.00,2013-03-08 21:44:00,
2013-03-08 16:50:00,36.9,27.0,30.13,NNW,329,4.7,11.6,67,0.00,,,0.00,VWS V14.00,2013-03-08 21:50:00,
2013-03-08 16:56:00,36.3,26.8,30.13,WNW,284,8.0,11.6,68,0.00,,,0.00,VWS V14.00,2013-03-08 21:56:00,
2013-03-08 17:02:00,35.8,26.8,30.14,WNW,292,2.7,11.6,69,0.00,,,0.00,VWS V14.00,2013-03-08 22:02:00,
2013-03-08 17:08:00,35.3,26.8,30.14,NW,322,3.4,11.6,71,0.00,,,0.00,VWS V14.00,2013-03-08 22:08:00,
2013-03-08 17:14:00,34.8,26.8,30.14,WNW,292,0.0,11.6,72,0.00,,,0.00,VWS V14.00,2013-03-08 22:14:00,
2013-03-08 17:20:00,34.4,26.8,30.15,WNW,294,0.0,11.6,73,0.00,,,0.00,VWS V14.00,2013-03-08 22:20:00,
2013-03-08 17:26:00,34.2,27.2,30.15,WNW,294,0.0,11.6,75,0.00,,,0.00,VWS V14.00,2013-03-08 22:26:00,
2013-03-08 17:32:00,34.2,27.4,30.15,NW,321,3.5,11.6,76,0.00,,,0.00,VWS V14.00,2013-03-08 22:32:00,
2013-03-08 17:38:00,34.2,27.4,30.15,NW,326,3.4,11.6,76,0.00,,,0.00,VWS V14.00,2013-03-08 22:38:00,
2013-03-08 17:44:00,34.0,27.3,30.15,NNW,328,0.0,11.6,76,0.00,,,0.00,VWS V14.00,2013-03-08 22:44:00,
2013-03-08 17:50:00,33.5,27.0,30.16,WNW,301,0.0,11.6,77,0.00,,,0.00,VWS V14.00,2013-03-08 22:50:00,
2013-03-08 17:56:00,33.2,26.9,30.16,WNW,301,0.0,11.6,78,0.00,,,0.00,VWS V14.00,2013-03-08 22:56:00,
2013-03-08 18:03:00,32.7,26.9,30.16,WSW,240,0.0,11.6,79,0.00,,,0.00,VWS V14.00,2013-03-08 23:03:00,
2013-03-08 18:09:00,32.3,26.9,30.16,WSW,240,0.0,11.6,80,0.00,,,0.00,VWS V14.00,2013-03-08 23:09:00,
2013-03-08 18:15:00,32.0,26.9,30.16,West,270,0.0,11.6,81,0.00,,,0.00,VWS V14.00,2013-03-08 23:15:00,
2013-03-08 18:21:00,31.8,27.0,30.17,NNW,345,0.0,11.6,82,0.00,,,0.00,VWS V14.00,2013-03-08 23:21:00,
2013-03-08 18:27:00,31.5,26.9,30.17,NNW,345,0.0,11.6,83,0.00,,,0.00,VWS V14.00,2013-03-08 23:27:00,
2013-03-08 18:33:00,31.4,26.9,30.17,NNW,345,0.0,11.6,83,0.00,,,0.00,VWS V14.00,2013-03-08 23:33:00,
2013-03-08 18:39:00,31.3,27.0,30.18,NNW,345,0.0,11.6,84,0.00,,,0.00,VWS V14.00,2013-03-08 23:39:00,
2013-03-08 18:45:00,31.2,27.1,30.18,NNW,345,0.0,11.6,85,0.00,,,0.00,VWS V14.00,2013-03-08 23:45:00,
2013-03-08 18:51:00,30.9,27.1,30.18,NNW,345,0.0,11.6,86,0.00,,,0.00,VWS V14.00,2013-03-08 23:51:00,
2013-03-08 18:57:00,30.9,27.4,30.19,NNW,345,0.0,11.6,86,0.00,,,0.00,VWS V14.00,2013-03-08 23:57:00,
2013-03-08 19:03:00,30.8,27.4,30.19,NNW,345,0.0,11.6,87,0.00,,,0.00,VWS V14.00,2013-03-09 00:03:00,
2013-03-08 19:09:00,30.7,27.3,30.19,NNW,345,0.0,11.6,87,0.00,,,0.00,VWS V14.00,2013-03-09 00:09:00,
2013-03-08 19:15:00,30.7,27.4,30.19,NNW,345,0.0,11.6,87,0.00,,,0.00,VWS V14.00,2013-03-09 00:15:00,
2013-03-08 19:21:00,30.6,27.4,30.20,NNW,345,0.0,11.6,88,0.00,,,0.00,VWS V14.00,2013-03-09 00:21:00,
2013-03-08 19:27:00,30.5,27.3,30.19,NNW,345,0.0,11.6,88,0.00,,,0.00,VWS V14.00,2013-03-09 00:27:00,
2013-03-08 19:33:00,30.5,27.3,30.20,NNW,345,0.0,11.6,88,0.00,,,0.00,VWS V14.00,2013-03-09 00:33:00,
2013-03-08 19:39:00,30.4,27.2,30.20,NNW,345,0.0,11.6,88,0.00,,,0.00,VWS V14.00,2013-03-09 00:39:00,
2013-03-08 19:45:00,30.4,27.3,30.20,NNW,345,0.0,11.6,88,0.00,,,0.00,VWS V14.00,2013-03-09 00:45:00,
2013-03-08 19:51:00,30.3,27.3,30.20,NNW,345,0.0,11.6,88,0.00,,,0.00,VWS V14.00,2013-03-09 00:51:00,
2013-03-08 19:57:00,30.4,27.4,30.20,NNW,345,0.0,11.6,89,0.00,,,0.00,VWS V14.00,2013-03-09 00:57:00,
2013-03-08 20:03:00,30.2,27.2,30.20,NNW,345,0.0,11.6,88,0.00,,,0.00,VWS V14.00,2013-03-09 01:03:00,
2013-03-08 20:09:00,30.2,27.3,30.20,NNW,345,0.0,11.6,89,0.00,,,0.00,VWS V14.00,2013-03-09 01:09:00,
2013-03-08 20:15:00,30.3,27.4,30.20,NNW,345,0.0,11.6,89,0.00,,,0.00,VWS V14.00,2013-03-09 01:15:00,
2013-03-08 20:21:00,30.1,27.3,30.21,NNW,345,0.0,11.6,89,0.00,,,0.00,VWS V14.00,2013-03-09 01:21:00,
2013-03-08 20:27:00,30.1,27.4,30.21,NNW,345,0.0,11.6,89,0.00,,,0.00,VWS V14.00,2013-03-09 01:27:00,
2013-03-08 20:34:00,29.9,27.3,30.21,NNW,345,0.0,11.6,90,0.00,,,0.00,VWS V14.00,2013-03-09 01:34:00,
2013-03-08 20:40:00,30.0,27.5,30.21,NNW,345,0.0,11.6,90,0.00,,,0.00,VWS V14.00,2013-03-09 01:40:00,
2013-03-08 20:46:00,29.7,27.2,30.21,NNW,345,0.0,11.6,90,0.00,,,0.00,VWS V14.00,2013-03-09 01:46:00,
2013-03-08 20:52:00,29.7,27.3,30.21,NNW,345,0.0,11.6,91,0.00,,,0.00,VWS V14.00,2013-03-09 01:52:00,
2013-03-08 20:58:00,29.5,27.1,30.21,NNW,345,0.0,11.6,91,0.00,,,0.00,VWS V14.00,2013-03-09 01:58:00,
2013-03-08 21:04:00,29.3,27.0,30.21,NNW,345,0.0,11.6,91,0.00,,,0.00,VWS V14.00,2013-03-09 02:04:00,
2013-03-08 21:10:00,29.3,27.1,30.21,NNW,345,0.0,11.6,91,0.00,,,0.00,VWS V14.00,2013-03-09 02:10:00,
2013-03-08 21:16:00,29.2,27.0,30.21,NNW,345,0.0,11.6,92,0.00,,,0.00,VWS V14.00,2013-03-09 02:16:00,
2013-03-08 21:22:00,29.0,26.9,30.21,NNW,345,0.0,11.6,92,0.00,,,0.00,VWS V14.00,2013-03-09 02:22:00,
2013-03-08 21:28:00,28.7,26.6,30.20,NNW,345,0.0,11.6,92,0.00,,,0.00,VWS V14.00,2013-03-09 02:28:00,
2013-03-08 21:34:00,28.8,26.8,30.20,NNW,345,0.0,11.6,92,0.00,,,0.00,VWS V14.00,2013-03-09 02:34:00,
2013-03-08 21:40:00,28.6,26.6,30.20,NNW,345,0.0,11.6,92,0.00,,,0.00,VWS V14.00,2013-03-09 02:40:00,
2013-03-08 21:46:00,28.7,26.7,30.20,NNW,345,0.0,11.6,92,0.00,,,0.00,VWS V14.00,2013-03-09 02:46:00,
2013-03-08 21:52:00,28.2,26.2,30.20,NNW,345,0.0,11.6,92,0.00,,,0.00,VWS V14.00,2013-03-09 02:52:00,
2013-03-08 21:58:00,28.0,26.0,30.20,NNW,345,0.0,11.6,92,0.00,,,0.00,VWS V14.00,2013-03-09 02:58:00,
2013-03-08 22:04:00,27.9,26.0,30.20,NNW,345,0.0,11.6,92,0.00,,,0.00,VWS V14.00,2013-03-09 03:04:00,
2013-03-08 22:10:00,27.7,25.9,30.20,NNW,345,0.0,11.6,93,0.00,,,0.00,VWS V14.00,2013-03-09 03:10:00,
2013-03-08 22:16:00,27.6,25.8,30.20,NNW,345,0.0,11.6,93,0.00,,,0.00,VWS V14.00,2013-03-09 03:16:00,
2013-03-08 22:22:00,27.4,25.6,30.20,NNW,345,0.0,11.6,93,0.00,,,0.00,VWS V14.00,2013-03-09 03:22:00,
2013-03-08 22:28:00,27.3,25.6,30.20,NNW,345,0.0,11.6,93,0.00,,,0.00,VWS V14.00,2013-03-09 03:28:00,
2013-03-08 22:34:00,27.2,25.6,30.20,NNW,345,0.0,11.6,94,0.00,,,0.00,VWS V14.00,2013-03-09 03:34:00,
2013-03-08 22:40:00,27.2,25.7,30.21,NNW,345,0.0,11.6,94,0.00,,,0.00,VWS V14.00,2013-03-09 03:40:00,
2013-03-08 22:46:00,27.2,25.7,30.21,NNW,345,0.0,11.6,94,0.00,,,0.00,VWS V14.00,2013-03-09 03:46:00,
2013-03-08 22:52:00,27.0,25.5,30.20,NNW,345,0.0,11.6,94,0.00,,,0.00,VWS V14.00,2013-03-09 03:52:00,
2013-03-08 22:58:00,26.9,25.4,30.21,NNW,345,0.0,11.6,94,0.00,,,0.00,VWS V14.00,2013-03-09 03:58:00,
2013-03-08 23:05:00,26.7,25.3,30.20,NNW,345,0.0,11.6,94,0.00,,,0.00,VWS V14.00,2013-03-09 04:05:00,
2013-03-08 23:11:00,26.6,25.3,30.20,NNW,345,0.0,11.6,95,0.00,,,0.00,VWS V14.00,2013-03-09 04:11:00,
2013-03-08 23:17:00,26.5,25.1,30.20,NNW,345,0.0,11.6,94,0.00,,,0.00,VWS V14.00,2013-03-09 04:17:00,
2013-03-08 23:23:00,26.3,24.9,30.20,NNW,345,0.0,11.6,94,0.00,,,0.00,VWS V14.00,2013-03-09 04:23:00,
2013-03-08 23:29:00,26.1,24.8,30.20,NNW,345,0.0,11.6,95,0.00,,,0.00,VWS V14.00,2013-03-09 04:29:00,
2013-03-08 23:35:00,25.9,24.6,30.20,NNW,345,0.0,11.6,95,0.00,,,0.00,VWS V14.00,2013-03-09 04:35:00,
2013-03-08 23:41:00,25.7,24.4,30.20,NNW,345,0.0,11.6,95,0.00,,,0.00,VWS V14.00,2013-03-09 04:41:00,
2013-03-08 23:47:00,25.6,24.3,30.20,NNW,345,0.0,11.6,95,0.00,,,0.00,VWS V14.00,2013-03-09 04:47:00,
2013-03-08 23:50:00,28.3,27.6,30.02,WSW,245,0.0,13.9,97,0.00,,,0.00,VWS V14.00,2013-03-09 04:50:00,
2013-03-08 23:53:00,25.4,24.2,30.20,NNW,345,0.0,0.0,95,0.00,,,0.00,VWS V14.00,2013-03-09 04:53:00,
2013-03-08 23:59:00,25.3,24.2,30.20,NNW,345,0.0,0.0,95,0.00,,,0.00,VWS V14.00,2013-03-09 04:59:00,